Time,TemperatureF,DewpointF,PressureIn,WindDirection,WindDirectionDegrees,WindSpeedMPH,WindSpeedGustMPH,Humidity,HourlyPrecipIn,Conditions,Clouds,dailyrainin,SoftwareType,DateUTC
2013-03-04 00:00:00,35.5,35.5,29.52,SW,236,7.0,10.0,100,0.00,,,0.00,VWS V14.01,2013-03-04 06:00:00,
2013-03-04 00:05:00,35.3,35.3,29.51,SW,236,3.0,7.0,100,0.00,,,0.00,VWS V14.01,2013-03-04 06:05:00,
2013-03-04 00:10:00,35.2,35.2,29.51,WSW,240,2.0,7.0,100,0.00,,,0.00,VWS V14.01,2013-03-04 06:10:00,
2013-03-04 00:15:00,34.7,34.7,29.53,WSW,247,3.0,7.0,100,0.00,,,0.00,VWS V14.01,2013-03-04 06:15:00,
2013-03-04 00:20:00,34.7,34.7,29.53,WSW,244,5.0,5.0,100,0.00,,,0.00,VWS V14.01,2013-03-04 06:20:00,
2013-03-04 00:25:00,34.4,34.4,29.53,WSW,240,5.0,6.0,100,0.00,,,0.00,VWS V14.01,2013-03-04 06:25:00,
2013-03-04 00:30:00,34.1,34.1,29.54,SW,233,5.0,7.0,100,0.00,,,0.00,VWS V14.01,2013-03-04 06:30:00,
2013-03-04 00:35:00,34.0,34.0,29.54,SW,220,5.0,6.0,100,0.00,,,0.00,VWS V14.01,2013-03-04 06:35:00,
2013-03-04 00:40:00,34.7,34.7,29.54,SW,219,7.0,10.0,100,0.00,,,0.00,VWS V14.01,2013-03-04 06:40:00,
2013-03-04 00:45:00,34.7,34.7,29.53,SW,233,6.0,10.0,100,0.00,,,0.00,VWS V14.01,2013-03-04 06:45:00,
2013-03-04 00:50:00,34.6,34.6,29.53,SW,229,6.0,7.0,100,0.00,,,0.00,VWS V14.01,2013-03-04 06:50:00,
2013-03-04 00:55:00,34.6,34.6,29.53,SW,223,5.0,7.0,100,0.00,,,0.00,VWS V14.01,2013-03-04 06:55:00,
2013-03-04 01:00:00,34.7,34.7,29.53,SW,233,5.0,7.0,100,0.00,,,0.00,VWS V14.01,2013-03-04 07:00:00,
2013-03-04 01:05:00,34.9,34.9,29.53,WSW,241,5.0,6.0,100,0.00,,,0.00,VWS V14.01,2013-03-04 07:05:00,
2013-03-04 01:10:00,34.9,34.9,29.53,WSW,243,2.0,6.0,100,0.00,,,0.00,VWS V14.01,2013-03-04 07:10:00,
2013-03-04 01:15:00,34.9,34.9,29.52,WSW,243,5.0,6.0,100,0.00,,,0.00,VWS V14.01,2013-03-04 07:15:00,
2013-03-04 01:20:00,34.4,34.4,29.52,WSW,244,5.0,5.0,100,0.00,,,0.00,VWS V14.01,2013-03-04 07:20:00,
2013-03-04 01:25:00,33.8,33.8,29.52,WSW,247,6.0,7.0,100,0.00,,,0.00,VWS V14.01,2013-03-04 07:25:00,
2013-03-04 01:30:00,33.1,33.1,29.53,WSW,247,7.0,7.0,100,0.00,,,0.00,VWS V14.01,2013-03-04 07:30:00,
2013-03-04 01:35:00,32.8,32.8,29.53,WSW,247,5.0,7.0,100,0.00,,,0.00,VWS V14.01,2013-03-04 07:35:00,
2013-03-04 01:40:00,32.9,32.9,29.53,WSW,247,5.0,8.0,100,0.00,,,0.00,VWS V14.01,2013-03-04 07:40:00,
2013-03-04 01:45:00,33.1,33.1,29.53,WSW,247,5.0,8.0,100,0.00,,,0.00,VWS V14.01,2013-03-04 07:45:00,
2013-03-04 01:50:00,33.4,33.4,29.53,WSW,247,5.0,6.0,100,0.00,,,0.00,VWS V14.01,2013-03-04 07:50:00,
2013-03-04 01:55:00,33.7,33.7,29.53,WSW,247,2.0,6.0,100,0.00,,,0.00,VWS V14.01,2013-03-04 07:55:00,
2013-03-04 02:00:00,34.3,34.3,29.53,WSW,247,4.0,6.0,100,0.00,,,0.00,VWS V14.01,2013-03-04 08:00:00,
2013-03-04 02:05:00,34.6,34.6,29.53,WSW,248,3.0,6.0,100,0.00,,,0.00,VWS V14.01,2013-03-04 08:05:00,
2013-03-04 02:10:00,34.7,34.7,29.53,WSW,248,2.0,6.0,100,0.00,,,0.00,VWS V14.01,2013-03-04 08:10:00,
2013-03-04 02:15:00,34.9,34.9,29.53,WSW,250,5.0,7.0,100,0.00,,,0.00,VWS V14.01,2013-03-04 08:15:00,
2013-03-04 02:20:00,34.4,34.4,29.53,WSW,251,6.0,7.0,100,0.00,,,0.00,VWS V14.01,2013-03-04 08:20:00,
2013-03-04 02:25:00,34.3,34.3,29.53,WSW,254,5.0,7.0,100,0.00,,,0.00,VWS V14.01,2013-03-04 08:25:00,
2013-03-04 02:30:00,34.0,34.0,29.55,WSW,253,2.0,7.0,100,0.00,,,0.00,VWS V14.01,2013-03-04 08:30:00,
2013-03-04 02:35:00,34.0,34.0,29.55,WSW,254,2.0,5.0,100,0.00,,,0.00,VWS V14.01,2013-03-04 08:35:00,
2013-03-04 02:40:00,34.1,34.1,29.55,WSW,254,5.0,6.0,100,0.00,,,0.00,VWS V14.01,2013-03-04 08:40:00,
2013-03-04 02:45:00,34.0,34.0,29.55,WSW,254,2.0,7.0,100,0.00,,,0.00,VWS V14.01,2013-03-04 08:45:00,
2013-03-04 02:50:00,33.8,33.8,29.55,WSW,254,4.0,5.0,100,0.00,,,0.00,VWS V14.01,2013-03-04 08:50:00,
2013-03-04 02:55:00,33.8,33.8,29.55,WSW,254,1.0,6.0,100,0.00,,,0.00,VWS V14.01,2013-03-04 08:55:00,
2013-03-04 03:00:00,33.8,33.8,29.55,WSW,254,4.0,6.0,100,0.00,,,0.00,VWS V14.01,2013-03-04 09:00:00,
2013-03-04 03:05:00,34.4,34.4,29.55,WSW,254,2.0,5.0,100,0.00,,,0.00,VWS V14.01,2013-03-04 09:05:00,
2013-03-04 03:10:00,35.5,35.5,29.55,WSW,254,5.0,7.0,100,0.00,,,0.00,VWS V14.01,2013-03-04 09:10:00,
2013-03-04 03:15:00,35.9,35.9,29.55,WSW,254,7.0,7.0,100,0.00,,,0.00,VWS V14.01,2013-03-04 09:15:00,
2013-03-04 03:20:00,35.6,35.6,29.55,WSW,254,2.0,7.0,100,0.00,,,0.00,VWS V14.01,2013-03-04 09:20:00,
2013-03-04 03:25:00,36.2,36.0,29.55,WSW,256,0.0,7.0,99,0.00,,,0.00,VWS V14.01,2013-03-04 09:25:00,
2013-03-04 03:30:00,36.6,35.3,29.56,West,265,5.0,7.0,95,0.00,,,0.00,VWS V14.01,2013-03-04 09:30:00,
2013-03-04 03:35:00,38.8,33.5,29.56,WNW,301,6.0,8.0,81,0.00,,,0.00,VWS V14.01,2013-03-04 09:35:00,
2013-03-04 03:40:00,40.8,34.2,29.56,WNW,298,6.0,8.0,77,0.00,,,0.00,VWS V14.01,2013-03-04 09:40:00,
2013-03-04 03:45:00,41.8,35.1,29.54,NW,304,3.0,8.0,77,0.00,,,0.00,VWS V14.01,2013-03-04 09:45:00,
2013-03-04 03:50:00,42.6,35.2,29.54,NNW,336,2.0,10.0,75,0.00,,,0.00,VWS V14.01,2013-03-04 09:50:00,
2013-03-04 03:55:00,43.8,35.0,29.54,NNW,329,11.0,11.0,71,0.00,,,0.00,VWS V14.01,2013-03-04 09:55:00,
2013-03-04 04:00:00,44.1,35.7,29.54,North,350,5.0,12.0,72,0.00,,,0.00,VWS V14.01,2013-03-04 10:00:00,
2013-03-04 04:05:00,44.1,35.7,29.54,North,354,7.0,15.0,72,0.00,,,0.00,VWS V14.01,2013-03-04 10:05:00,
2013-03-04 04:10:00,43.8,35.4,29.54,North,359,14.0,19.0,72,0.00,,,0.00,VWS V14.01,2013-03-04 10:10:00,
2013-03-04 04:15:00,43.8,35.7,29.56,North,0,12.0,19.0,73,0.00,,,0.00,VWS V14.01,2013-03-04 10:15:00,
2013-03-04 04:20:00,43.5,36.1,29.56,North,354,9.0,14.0,75,0.00,,,0.00,VWS V14.01,2013-03-04 10:20:00,
2013-03-04 04:25:00,43.1,36.1,29.56,North,357,10.0,14.0,76,0.00,,,0.00,VWS V14.01,2013-03-04 10:25:00,
2013-03-04 04:30:00,42.5,36.1,29.57,NW,311,10.0,17.0,78,0.00,,,0.00,VWS V14.01,2013-03-04 10:30:00,
2013-03-04 04:35:00,41.9,37.1,29.57,NNW,346,9.0,17.0,83,0.00,,,0.00,VWS V14.01,2013-03-04 10:35:00,
2013-03-04 04:40:00,41.6,36.2,29.57,North,354,11.0,19.0,81,0.00,,,0.00,VWS V14.01,2013-03-04 10:40:00,
2013-03-04 04:45:00,41.2,36.1,29.58,North,359,17.0,25.0,82,0.00,,,0.00,VWS V14.01,2013-03-04 10:45:00,
2013-03-04 04:50:00,40.2,35.5,29.58,North,354,14.0,29.0,83,0.00,,,0.00,VWS V14.01,2013-03-04 10:50:00,
2013-03-04 04:55:00,39.2,35.1,29.58,NNW,347,25.0,29.0,85,0.00,,,0.00,VWS V14.01,2013-03-04 10:55:00,
2013-03-04 05:00:00,38.2,35.2,29.60,North,354,19.0,29.0,89,0.00,,,0.00,VWS V14.01,2013-03-04 11:00:00,
2013-03-04 05:05:00,37.6,35.2,29.60,NW,312,10.0,27.0,91,0.00,,,0.00,VWS V14.01,2013-03-04 11:05:00,
2013-03-04 05:10:00,37.2,35.1,29.60,North,354,24.0,33.0,92,0.00,,,0.00,VWS V14.01,2013-03-04 11:10:00,
2013-03-04 05:15:00,36.8,35.5,29.61,North,1,26.0,33.0,95,0.00,,,0.00,VWS V14.01,2013-03-04 11:15:00,
2013-03-04 05:20:00,36.5,35.5,29.61,North,357,21.0,30.0,96,0.00,,,0.00,VWS V14.01,2013-03-04 11:20:00,
2013-03-04 05:25:00,36.2,36.2,29.61,North,354,17.0,30.0,100,0.00,,,0.00,VWS V14.01,2013-03-04 11:25:00,
2013-03-04 05:30:00,35.9,35.9,29.62,North,356,30.0,30.0,100,0.00,,,0.00,VWS V14.01,2013-03-04 11:30:00,
2013-03-04 05:35:00,35.9,35.9,29.62,NW,326,18.0,28.0,100,0.00,,,0.00,VWS V14.01,2013-03-04 11:35:00,
2013-03-04 05:40:00,35.8,35.8,29.62,North,354,25.0,30.0,100,0.00,,,0.00,VWS V14.01,2013-03-04 11:40:00,
2013-03-04 05:45:00,35.9,35.9,29.63,North,359,21.0,30.0,100,0.00,,,0.00,VWS V14.01,2013-03-04 11:45:00,
2013-03-04 05:50:00,35.9,35.9,29.63,North,356,25.0,27.0,100,0.00,,,0.00,VWS V14.01,2013-03-04 11:50:00,
2013-03-04 05:55:00,35.8,35.8,29.63,North,0,19.0,27.0,100,0.00,,,0.00,VWS V14.01,2013-03-04 11:55:00,
2013-03-04 06:00:00,35.8,35.8,29.64,North,0,21.0,28.0,100,0.00,,,0.00,VWS V14.01,2013-03-04 12:00:00,
2013-03-04 06:05:00,35.9,35.9,29.64,North,349,28.0,28.0,100,0.00,,,0.00,VWS V14.01,2013-03-04 12:05:00,
2013-03-04 06:10:00,36.0,36.0,29.64,North,350,29.0,30.0,100,0.00,,,0.00,VWS V14.01,2013-03-04 12:10:00,
2013-03-04 06:15:00,36.2,36.2,29.63,North,357,21.0,31.0,100,0.00,,,0.00,VWS V14.01,2013-03-04 12:15:00,
2013-03-04 06:20:00,36.2,36.2,29.63,North,359,20.0,34.0,100,0.00,,,0.00,VWS V14.01,2013-03-04 12:20:00,
2013-03-04 06:25:00,36.0,36.0,29.63,North,359,21.0,34.0,100,0.00,,,0.00,VWS V14.01,2013-03-04 12:25:00,
2013-03-04 06:30:00,36.0,36.0,29.64,North,354,22.0,34.0,100,0.00,,,0.00,VWS V14.01,2013-03-04 12:30:00,
2013-03-04 06:35:00,35.9,35.9,29.64,North,1,24.0,31.0,100,0.00,,,0.00,VWS V14.01,2013-03-04 12:35:00,
2013-03-04 06:40:00,35.6,35.6,29.64,North,359,26.0,31.0,100,0.00,,,0.00,VWS V14.01,2013-03-04 12:40:00,
2013-03-04 06:45:00,35.6,35.6,29.65,North,356,17.0,31.0,100,0.00,,,0.00,VWS V14.01,2013-03-04 12:45:00,
2013-03-04 06:50:00,35.6,35.6,29.65,North,350,21.0,28.0,100,0.00,,,0.00,VWS V14.01,2013-03-04 12:50:00,
2013-03-04 06:55:00,35.6,35.6,29.65,North,359,25.0,33.0,100,0.00,,,0.00,VWS V14.01,2013-03-04 12:55:00,
2013-03-04 07:00:00,35.5,35.5,29.65,North,0,27.0,33.0,100,0.00,,,0.00,VWS V14.01,2013-03-04 13:00:00,
2013-03-04 07:05:00,35.6,35.6,29.65,North,0,29.0,29.0,100,0.00,,,0.00,VWS V14.01,2013-03-04 13:05:00,
2013-03-04 07:10:00,35.6,35.6,29.65,North,356,21.0,29.0,100,0.00,,,0.00,VWS V14.01,2013-03-04 13:10:00,
2013-03-04 07:15:00,35.3,35.3,29.68,North,354,21.0,29.0,100,0.00,,,0.00,VWS V14.01,2013-03-04 13:15:00,
2013-03-04 07:20:00,35.3,35.3,29.68,NNW,346,17.0,26.0,100,0.00,,,0.00,VWS V14.01,2013-03-04 13:20:00,
2013-03-04 07:25:00,35.3,35.3,29.68,North,357,15.0,26.0,100,0.00,,,0.00,VWS V14.01,2013-03-04 13:25:00,
2013-03-04 07:30:00,35.3,35.3,29.70,NNW,347,8.0,26.0,100,0.00,,,0.00,VWS V14.01,2013-03-04 13:30:00,
2013-03-04 07:35:00,35.3,35.3,29.70,North,359,7.0,14.0,100,0.00,,,0.00,VWS V14.01,2013-03-04 13:35:00,
2013-03-04 07:40:00,35.3,35.3,29.70,NNW,343,17.0,21.0,100,0.00,,,0.00,VWS V14.01,2013-03-04 13:40:00,
2013-03-04 07:45:00,35.5,35.5,29.71,North,359,21.0,26.0,100,0.00,,,0.00,VWS V14.01,2013-03-04 13:45:00,
2013-03-04 07:50:00,35.5,35.5,29.71,North,357,10.0,26.0,100,0.00,,,0.00,VWS V14.01,2013-03-04 13:50:00,
2013-03-04 07:55:00,35.5,35.5,29.71,North,359,14.0,26.0,100,0.00,,,0.00,VWS V14.01,2013-03-04 13:55:00,
2013-03-04 08:00:00,35.5,35.5,29.71,North,357,18.0,26.0,100,0.00,,,0.00,VWS V14.01,2013-03-04 14:00:00,
2013-03-04 08:05:00,35.3,35.3,29.71,North,359,14.0,21.0,100,0.00,,,0.00,VWS V14.01,2013-03-04 14:05:00,
2013-03-04 08:10:00,35.3,35.3,29.71,North,359,20.0,22.0,100,0.00,,,0.00,VWS V14.01,2013-03-04 14:10:00,
2013-03-04 08:15:00,35.3,35.3,29.72,North,0,21.0,28.0,100,0.00,,,0.00,VWS V14.01,2013-03-04 14:15:00,
2013-03-04 08:20:00,35.5,35.5,29.72,North,8,22.0,27.0,100,0.00,,,0.00,VWS V14.01,2013-03-04 14:20:00,
2013-03-04 08:25:00,35.5,35.5,29.72,North,0,33.0,34.0,100,0.00,,,0.00,VWS V14.01,2013-03-04 14:25:00,
2013-03-04 08:30:00,35.5,35.0,29.72,NNE,25,14.0,34.0,98,0.00,,,0.00,VWS V14.01,2013-03-04 14:30:00,
2013-03-04 08:35:00,35.6,34.8,29.72,North,359,13.0,25.0,97,0.00,,,0.00,VWS V14.01,2013-03-04 14:35:00,
2013-03-04 08:41:00,35.5,35.2,29.72,North,359,17.0,25.0,99,0.00,,,0.00,VWS V14.01,2013-03-04 14:41:00,
2013-03-04 08:45:00,36.3,32.5,29.73,NNE,17,10.0,26.0,86,0.00,,,0.00,VWS V14.01,2013-03-04 14:45:00,
2013-03-04 08:46:00,35.6,35.1,29.72,NNE,27,14.0,26.0,98,0.00,,,0.00,VWS V14.01,2013-03-04 14:46:00,
2013-03-04 08:51:00,35.8,34.8,29.72,North,359,24.0,26.0,96,0.00,,,0.00,VWS V14.01,2013-03-04 14:51:00,
2013-03-04 08:56:00,35.8,34.5,29.72,North,352,24.0,30.0,95,0.00,,,0.00,VWS V14.01,2013-03-04 14:56:00,
2013-03-04 09:00:00,36.9,30.4,29.72,North,0,14.0,22.0,77,0.00,,,0.00,VWS V14.01,2013-03-04 15:00:00,
2013-03-04 09:01:00,35.6,34.3,29.73,North,359,19.0,30.0,95,0.00,,,0.00,VWS V14.01,2013-03-04 15:01:00,
2013-03-04 09:06:00,35.8,34.2,29.73,North,350,19.0,21.0,94,0.00,,,0.00,VWS V14.01,2013-03-04 15:06:00,
2013-03-04 09:11:00,36.0,33.9,29.73,North,6,19.0,24.0,92,0.00,,,0.00,VWS V14.01,2013-03-04 15:11:00,
2013-03-04 09:15:00,37.0,30.5,29.73,NNE,23,12.0,27.0,77,0.00,,,0.00,VWS V14.01,2013-03-04 15:15:00,
2013-03-04 09:16:00,36.2,33.3,29.73,North,8,13.0,24.0,89,0.00,,,0.00,VWS V14.01,2013-03-04 15:16:00,
2013-03-04 09:21:00,36.0,33.6,29.73,NNE,25,12.0,22.0,91,0.00,,,0.00,VWS V14.01,2013-03-04 15:21:00,
2013-03-04 09:26:00,35.9,33.8,29.73,NNE,17,17.0,22.0,92,0.00,,,0.00,VWS V14.01,2013-03-04 15:26:00,
2013-03-04 09:30:00,37.0,29.5,29.74,North,350,19.0,24.0,74,0.00,,,0.00,VWS V14.01,2013-03-04 15:30:00,
2013-03-04 09:31:00,36.0,32.8,29.73,North,356,24.0,28.0,88,0.00,,,0.00,VWS V14.01,2013-03-04 15:31:00,
2013-03-04 09:36:00,35.9,32.1,29.73,NNE,23,16.0,26.0,86,0.00,,,0.00,VWS V14.01,2013-03-04 15:36:00,
2013-03-04 09:41:00,36.2,33.0,29.73,North,359,18.0,26.0,88,0.00,,,0.00,VWS V14.01,2013-03-04 15:41:00,
2013-03-04 09:45:00,37.5,27.2,29.75,North,354,10.0,21.0,66,0.00,,,0.00,VWS V14.01,2013-03-04 15:45:00,
2013-03-04 09:46:00,36.3,32.8,29.73,NNE,17,11.0,26.0,87,0.00,,,0.00,VWS V14.01,2013-03-04 15:46:00,
2013-03-04 09:51:00,36.5,32.7,29.73,North,359,17.0,20.0,86,0.00,,,0.00,VWS V14.01,2013-03-04 15:51:00,
2013-03-04 09:56:00,36.8,32.7,29.73,North,0,17.0,22.0,85,0.00,,,0.00,VWS V14.01,2013-03-04 15:56:00,
2013-03-04 10:00:00,38.0,25.8,29.74,North,1,12.0,19.0,61,0.00,,,0.00,VWS V14.01,2013-03-04 16:00:00,
2013-03-04 10:01:00,36.9,30.4,29.72,NNE,20,17.0,22.0,77,0.00,,,0.00,VWS V14.01,2013-03-04 16:01:00,
2013-03-04 10:06:00,36.9,31.3,29.72,North,0,12.0,27.0,80,0.00,,,0.00,VWS V14.01,2013-03-04 16:06:00,
2013-03-04 10:11:00,36.9,31.0,29.72,North,359,10.0,27.0,79,0.00,,,0.00,VWS V14.01,2013-03-04 16:11:00,
2013-03-04 10:15:00,38.9,25.0,29.73,North,0,12.0,19.0,57,0.00,,,0.00,VWS V14.01,2013-03-04 16:15:00,
2013-03-04 10:16:00,37.0,30.8,29.73,North,7,12.0,27.0,78,0.00,,,0.00,VWS V14.01,2013-03-04 16:16:00,
2013-03-04 10:21:00,37.0,30.5,29.73,NNE,16,14.0,19.0,77,0.00,,,0.00,VWS V14.01,2013-03-04 16:21:00,
2013-03-04 10:26:00,37.2,30.0,29.73,North,6,14.0,24.0,75,0.00,,,0.00,VWS V14.01,2013-03-04 16:26:00,
2013-03-04 10:30:00,39.2,24.0,29.73,North,356,13.0,24.0,54,0.00,,,0.00,VWS V14.01,2013-03-04 16:30:00,
2013-03-04 10:31:00,37.0,29.8,29.74,North,359,17.0,24.0,75,0.00,,,0.00,VWS V14.01,2013-03-04 16:31:00,
2013-03-04 10:36:00,37.2,29.7,29.74,North,354,13.0,19.0,74,0.00,,,0.00,VWS V14.01,2013-03-04 16:36:00,
2013-03-04 10:41:00,37.3,29.5,29.74,North,0,15.0,19.0,73,0.00,,,0.00,VWS V14.01,2013-03-04 16:41:00,
2013-03-04 10:45:00,39.1,23.9,29.74,North,359,12.0,20.0,54,0.00,,,0.00,VWS V14.01,2013-03-04 16:45:00,
2013-03-04 10:46:00,37.5,27.2,29.75,North,356,17.0,21.0,66,0.00,,,0.00,VWS V14.01,2013-03-04 16:46:00,
2013-03-04 10:51:00,37.6,26.9,29.75,North,1,12.0,19.0,65,0.00,,,0.00,VWS V14.01,2013-03-04 16:51:00,
2013-03-04 10:56:00,37.8,25.6,29.75,North,1,10.0,19.0,61,0.00,,,0.00,VWS V14.01,2013-03-04 16:56:00,
2013-03-04 11:00:00,39.1,24.3,29.74,North,0,10.0,18.0,55,0.00,,,0.00,VWS V14.01,2013-03-04 17:00:00,
2013-03-04 11:01:00,38.0,26.1,29.74,North,353,13.0,19.0,62,0.00,,,0.00,VWS V14.01,2013-03-04 17:01:00,
2013-03-04 11:06:00,38.5,25.8,29.74,North,11,13.0,19.0,60,0.00,,,0.00,VWS V14.01,2013-03-04 17:06:00,
2013-03-04 11:11:00,38.6,26.3,29.74,North,10,10.0,19.0,61,0.00,,,0.00,VWS V14.01,2013-03-04 17:11:00,
2013-03-04 11:15:00,39.3,23.2,29.75,NNE,21,12.0,15.0,52,0.00,,,0.00,VWS V14.01,2013-03-04 17:15:00,
2013-03-04 11:16:00,38.9,25.0,29.73,North,0,13.0,19.0,57,0.00,,,0.00,VWS V14.01,2013-03-04 17:16:00,
2013-03-04 11:21:00,39.1,24.3,29.73,NNE,13,13.0,17.0,55,0.00,,,0.00,VWS V14.01,2013-03-04 17:21:00,
2013-03-04 11:26:00,39.2,22.6,29.73,NE,34,12.0,24.0,51,0.00,,,0.00,VWS V14.01,2013-03-04 17:26:00,
2013-03-04 11:31:00,39.2,24.4,29.73,North,1,14.0,24.0,55,0.00,,,0.00,VWS V14.01,2013-03-04 17:31:00,
2013-03-04 11:36:00,39.1,23.9,29.73,NNE,28,14.0,19.0,54,0.00,,,0.00,VWS V14.01,2013-03-04 17:36:00,
2013-03-04 11:41:00,39.1,23.9,29.73,North,356,14.0,19.0,54,0.00,,,0.00,VWS V14.01,2013-03-04 17:41:00,
2013-03-04 11:45:00,39.3,24.5,29.75,NE,34,8.0,12.0,55,0.00,,,0.00,VWS V14.01,2013-03-04 17:45:00,
2013-03-04 11:46:00,39.1,24.3,29.74,North,357,18.0,20.0,55,0.00,,,0.00,VWS V14.01,2013-03-04 17:46:00,
2013-03-04 11:51:00,39.1,23.9,29.74,North,356,12.0,18.0,54,0.00,,,0.00,VWS V14.01,2013-03-04 17:51:00,
2013-03-04 11:56:00,39.2,23.5,29.74,North,4,10.0,18.0,53,0.00,,,0.00,VWS V14.01,2013-03-04 17:56:00,
2013-03-04 12:00:00,39.8,24.1,29.75,NNE,32,5.0,11.0,53,0.00,,,0.00,VWS V14.01,2013-03-04 18:00:00,
2013-03-04 12:01:00,39.1,24.7,29.74,North,6,12.0,18.0,56,0.00,,,0.00,VWS V14.01,2013-03-04 18:01:00,
2013-03-04 12:06:00,39.1,23.4,29.74,North,359,12.0,15.0,53,0.00,,,0.00,VWS V14.01,2013-03-04 18:06:00,
2013-03-04 12:11:00,39.2,23.1,29.74,North,359,12.0,15.0,52,0.00,,,0.00,VWS V14.01,2013-03-04 18:11:00,
2013-03-04 12:15:00,40.6,23.9,29.76,NNE,13,4.0,10.0,51,0.00,,,0.00,VWS V14.01,2013-03-04 18:15:00,
2013-03-04 12:16:00,39.3,23.2,29.75,North,356,10.0,15.0,52,0.00,,,0.00,VWS V14.01,2013-03-04 18:16:00,
2013-03-04 12:21:00,39.5,22.9,29.75,North,6,11.0,17.0,51,0.00,,,0.00,VWS V14.01,2013-03-04 18:21:00,
2013-03-04 12:26:00,39.6,23.0,29.75,NNE,16,12.0,19.0,51,0.00,,,0.00,VWS V14.01,2013-03-04 18:26:00,
2013-03-04 12:29:00,39.5,22.9,29.75,North,353,16.0,19.0,51,0.00,,,0.00,VWS V14.01,2013-03-04 18:29:00,
2013-03-04 12:30:00,39.5,22.9,29.75,North,3,12.0,19.0,51,0.00,,,0.00,VWS V14.01,2013-03-04 18:30:00,
2013-03-04 12:35:00,39.5,22.4,29.76,NNE,32,7.0,12.0,50,0.00,,,0.00,VWS V14.01,2013-03-04 18:35:00,
2013-03-04 12:40:00,39.3,23.2,29.76,NNE,16,5.0,12.0,52,0.00,,,0.00,VWS V14.01,2013-03-04 18:40:00,
2013-03-04 12:45:00,39.2,25.3,29.76,NE,34,6.0,12.0,57,0.00,,,0.00,VWS V14.01,2013-03-04 18:45:00,
2013-03-04 12:50:00,39.5,24.2,29.75,NNE,25,7.0,11.0,54,0.00,,,0.00,VWS V14.01,2013-03-04 18:50:00,
2013-03-04 12:55:00,39.8,23.6,29.75,NNE,27,5.0,11.0,52,0.00,,,0.00,VWS V14.01,2013-03-04 18:55:00,
2013-03-04 13:00:00,39.8,25.0,29.75,NNE,31,7.0,11.0,55,0.00,,,0.00,VWS V14.01,2013-03-04 19:00:00,
2013-03-04 13:05:00,39.9,24.2,29.75,North,8,7.0,10.0,53,0.00,,,0.00,VWS V14.01,2013-03-04 19:05:00,
2013-03-04 13:10:00,40.3,23.6,29.75,NNE,27,6.0,10.0,51,0.00,,,0.00,VWS V14.01,2013-03-04 19:10:00,
2013-03-04 13:15:00,40.5,23.3,29.75,North,11,6.0,10.0,50,0.00,,,0.00,VWS V14.01,2013-03-04 19:15:00,
2013-03-04 13:20:00,40.5,25.2,29.76,NNE,21,4.0,7.0,54,0.00,,,0.00,VWS V14.01,2013-03-04 19:20:00,
2013-03-04 13:25:00,40.9,24.2,29.76,North,7,5.0,7.0,51,0.00,,,0.00,VWS V14.01,2013-03-04 19:25:00,
2013-03-04 13:30:00,41.3,24.5,29.76,NNW,346,9.0,10.0,51,0.00,,,0.00,VWS V14.01,2013-03-04 19:30:00,
2013-03-04 13:35:00,41.6,24.4,29.75,North,1,7.0,12.0,50,0.00,,,0.00,VWS V14.01,2013-03-04 19:35:00,
2013-03-04 13:40:00,41.6,21.9,29.75,North,0,7.0,13.0,45,0.00,,,0.00,VWS V14.01,2013-03-04 19:40:00,
2013-03-04 13:45:00,41.5,23.3,29.75,NNE,21,7.0,13.0,48,0.00,,,0.00,VWS V14.01,2013-03-04 19:45:00,
2013-03-04 13:50:00,41.8,23.6,29.75,NNE,20,7.0,10.0,48,0.00,,,0.00,VWS V14.01,2013-03-04 19:50:00,
2013-03-04 13:55:00,41.9,23.7,29.75,NNE,24,9.0,10.0,48,0.00,,,0.00,VWS V14.01,2013-03-04 19:55:00,
2013-03-04 14:00:00,42.1,21.8,29.75,NNE,21,7.0,10.0,44,0.00,,,0.00,VWS V14.01,2013-03-04 20:00:00,
2013-03-04 14:05:00,42.2,21.9,29.74,North,10,7.0,8.0,44,0.00,,,0.00,VWS V14.01,2013-03-04 20:05:00,
2013-03-04 14:10:00,42.1,20.7,29.74,North,359,12.0,12.0,42,0.00,,,0.00,VWS V14.01,2013-03-04 20:10:00,
2013-03-04 14:15:00,42.2,21.3,29.74,North,1,6.0,12.0,43,0.00,,,0.00,VWS V14.01,2013-03-04 20:15:00,
2013-03-04 14:20:00,41.9,22.6,29.75,North,359,8.0,8.0,46,0.00,,,0.00,VWS V14.01,2013-03-04 20:20:00,
2013-03-04 14:25:00,41.6,24.4,29.75,North,0,7.0,11.0,50,0.00,,,0.00,VWS V14.01,2013-03-04 20:25:00,
2013-03-04 14:30:00,41.5,24.7,29.75,North,356,10.0,14.0,51,0.00,,,0.00,VWS V14.01,2013-03-04 20:30:00,
2013-03-04 14:35:00,41.3,24.5,29.77,North,354,7.0,11.0,51,0.00,,,0.00,VWS V14.01,2013-03-04 20:35:00,
2013-03-04 14:40:00,41.8,23.6,29.77,North,354,6.0,11.0,48,0.00,,,0.00,VWS V14.01,2013-03-04 20:40:00,
2013-03-04 14:45:00,42.2,20.2,29.77,North,357,1.0,11.0,41,0.00,,,0.00,VWS V14.01,2013-03-04 20:45:00,
2013-03-04 14:50:00,42.6,18.8,29.80,North,359,2.0,7.0,38,0.00,,,0.00,VWS V14.01,2013-03-04 20:50:00,
2013-03-04 14:55:00,42.6,21.7,29.80,North,359,6.0,10.0,43,0.00,,,0.00,VWS V14.01,2013-03-04 20:55:00,
2013-03-04 15:00:00,42.8,20.8,29.80,WNW,298,5.0,12.0,41,0.00,,,0.00,VWS V14.01,2013-03-04 21:00:00,
2013-03-04 15:05:00,42.6,23.3,29.81,WNW,292,5.0,10.0,46,0.00,,,0.00,VWS V14.01,2013-03-04 21:05:00,
2013-03-04 15:10:00,42.5,23.7,29.81,North,353,2.0,10.0,47,0.00,,,0.00,VWS V14.01,2013-03-04 21:10:00,
2013-03-04 15:15:00,42.2,24.9,29.81,North,1,14.0,14.0,50,0.00,,,0.00,VWS V14.01,2013-03-04 21:15:00,
2013-03-04 15:20:00,42.5,25.2,29.78,NW,318,5.0,8.0,50,0.00,,,0.00,VWS V14.01,2013-03-04 21:20:00,
2013-03-04 15:25:00,42.2,24.9,29.78,NNW,340,6.0,16.0,50,0.00,,,0.00,VWS V14.01,2013-03-04 21:25:00,
2013-03-04 15:30:00,42.2,24.9,29.78,North,359,7.0,16.0,50,0.00,,,0.00,VWS V14.01,2013-03-04 21:30:00,
2013-03-04 15:35:00,41.9,24.6,29.79,North,354,12.0,14.0,50,0.00,,,0.00,VWS V14.01,2013-03-04 21:35:00,
2013-03-04 15:40:00,41.9,23.7,29.79,North,349,9.0,17.0,48,0.00,,,0.00,VWS V14.01,2013-03-04 21:40:00,
2013-03-04 15:45:00,42.2,23.9,29.79,North,354,7.0,17.0,48,0.00,,,0.00,VWS V14.01,2013-03-04 21:45:00,
2013-03-04 15:50:00,42.1,24.3,29.80,North,356,5.0,7.0,49,0.00,,,0.00,VWS V14.01,2013-03-04 21:50:00,
2013-03-04 15:55:00,42.1,23.3,29.80,North,359,2.0,7.0,47,0.00,,,0.00,VWS V14.01,2013-03-04 21:55:00,
2013-03-04 16:00:00,41.9,23.2,29.80,North,356,5.0,8.0,47,0.00,,,0.00,VWS V14.01,2013-03-04 22:00:00,
2013-03-04 16:05:00,41.8,21.0,29.80,North,357,8.0,13.0,43,0.00,,,0.00,VWS V14.01,2013-03-04 22:05:00,
2013-03-04 16:10:00,41.9,19.4,29.80,NW,316,7.0,17.0,40,0.00,,,0.00,VWS V14.01,2013-03-04 22:10:00,
2013-03-04 16:15:00,42.2,18.4,29.80,NNW,330,5.0,17.0,38,0.00,,,0.00,VWS V14.01,2013-03-04 22:15:00,
2013-03-04 16:20:00,41.9,18.2,29.83,NNW,343,7.0,19.0,38,0.00,,,0.00,VWS V14.01,2013-03-04 22:20:00,
2013-03-04 16:25:00,41.5,20.7,29.83,North,350,4.0,19.0,43,0.00,,,0.00,VWS V14.01,2013-03-04 22:25:00,
2013-03-04 16:30:00,41.2,22.0,29.83,NNW,347,5.0,19.0,46,0.00,,,0.00,VWS V14.01,2013-03-04 22:30:00,
2013-03-04 16:35:00,40.9,20.7,29.86,NW,318,3.0,10.0,44,0.00,,,0.00,VWS V14.01,2013-03-04 22:35:00,
2013-03-04 16:40:00,40.6,20.4,29.86,NNW,328,2.0,14.0,44,0.00,,,0.00,VWS V14.01,2013-03-04 22:40:00,
2013-03-04 16:45:00,40.5,20.3,29.86,North,359,12.0,19.0,44,0.00,,,0.00,VWS V14.01,2013-03-04 22:45:00,
2013-03-04 16:50:00,40.6,17.6,29.88,NW,326,5.0,11.0,39,0.00,,,0.00,VWS V14.01,2013-03-04 22:50:00,
2013-03-04 16:55:00,40.6,19.3,29.88,NW,315,6.0,11.0,42,0.00,,,0.00,VWS V14.01,2013-03-04 22:55:00,
2013-03-04 17:00:00,40.3,17.3,29.91,NW,316,10.0,11.0,39,0.00,,,0.00,VWS V14.01,2013-03-04 23:00:00,
2013-03-04 17:05:00,39.9,15.1,29.91,North,349,9.0,13.0,36,0.00,,,0.00,VWS V14.01,2013-03-04 23:05:00,
2013-03-04 17:10:00,39.5,16.0,29.91,NW,316,7.0,17.0,38,0.00,,,0.00,VWS V14.01,2013-03-04 23:10:00,
2013-03-04 17:15:00,39.3,16.4,29.91,NNW,347,6.0,17.0,39,0.00,,,0.00,VWS V14.01,2013-03-04 23:15:00,
2013-03-04 17:20:00,39.1,15.6,29.93,North,349,7.0,16.0,38,0.00,,,0.00,VWS V14.01,2013-03-04 23:20:00,
2013-03-04 17:25:00,38.9,14.2,29.93,North,349,13.0,16.0,36,0.00,,,0.00,VWS V14.01,2013-03-04 23:25:00,
2013-03-04 17:30:00,38.8,15.4,29.93,NNW,339,12.0,16.0,38,0.00,,,0.00,VWS V14.01,2013-03-04 23:30:00,
2013-03-04 17:35:00,38.5,15.7,29.93,NW,326,3.0,13.0,39,0.00,,,0.00,VWS V14.01,2013-03-04 23:35:00,
2013-03-04 17:40:00,38.2,17.7,29.93,North,354,13.0,13.0,43,0.00,,,0.00,VWS V14.01,2013-03-04 23:40:00,
2013-03-04 17:45:00,38.0,15.8,29.94,NW,323,6.0,13.0,40,0.00,,,0.00,VWS V14.01,2013-03-04 23:45:00,
2013-03-04 17:50:00,37.9,15.8,29.94,North,359,13.0,17.0,40,0.00,,,0.00,VWS V14.01,2013-03-04 23:50:00,
2013-03-04 17:55:00,37.8,15.7,29.94,NNW,347,7.0,17.0,40,0.00,,,0.00,VWS V14.01,2013-03-04 23:55:00,
2013-03-04 18:00:00,37.6,16.6,29.94,North,354,7.0,17.0,42,0.00,,,0.00,VWS V14.01,2013-03-05 00:00:00,
2013-03-04 18:05:00,37.8,15.7,29.94,NNW,336,12.0,20.0,40,0.00,,,0.00,VWS V14.01,2013-03-05 00:05:00,
2013-03-04 18:10:00,37.8,11.3,29.94,NW,315,7.0,20.0,33,0.00,,,0.00,VWS V14.01,2013-03-05 00:10:00,
2013-03-04 18:15:00,37.6,12.4,29.96,NW,323,11.0,20.0,35,0.00,,,0.00,VWS V14.01,2013-03-05 00:15:00,
2013-03-04 18:20:00,37.3,14.6,29.96,NW,325,5.0,11.0,39,0.00,,,0.00,VWS V14.01,2013-03-05 00:20:00,
2013-03-04 18:25:00,36.8,12.4,29.96,NNW,342,13.0,25.0,36,0.00,,,0.00,VWS V14.01,2013-03-05 00:25:00,
2013-03-04 18:30:00,36.3,10.6,29.98,NNW,339,7.0,25.0,34,0.00,,,0.00,VWS V14.01,2013-03-05 00:30:00,
2013-03-04 18:35:00,36.0,11.6,29.98,NW,315,5.0,12.0,36,0.00,,,0.00,VWS V14.01,2013-03-05 00:35:00,
2013-03-04 18:40:00,35.6,11.9,29.98,NW,315,5.0,12.0,37,0.00,,,0.00,VWS V14.01,2013-03-05 00:40:00,
2013-03-04 18:45:00,35.3,14.5,29.99,NNW,336,5.0,12.0,42,0.00,,,0.00,VWS V14.01,2013-03-05 00:45:00,
2013-03-04 18:50:00,35.0,13.7,29.99,NNW,328,4.0,10.0,41,0.00,,,0.00,VWS V14.01,2013-03-05 00:50:00,
2013-03-04 18:55:00,34.9,14.7,29.99,NNW,335,5.0,12.0,43,0.00,,,0.00,VWS V14.01,2013-03-05 00:55:00,
2013-03-04 19:00:00,34.7,16.0,30.00,NW,315,4.0,12.0,46,0.00,,,0.00,VWS V14.01,2013-03-05 01:00:00,
2013-03-04 19:05:00,34.6,16.0,30.00,NW,306,6.0,12.0,46,0.00,,,0.00,VWS V14.01,2013-03-05 01:05:00,
2013-03-04 19:10:00,34.4,15.8,30.00,NW,319,2.0,12.0,46,0.00,,,0.00,VWS V14.01,2013-03-05 01:10:00,
2013-03-04 19:15:00,34.6,13.3,30.02,NW,311,6.0,12.0,41,0.00,,,0.00,VWS V14.01,2013-03-05 01:15:00,
2013-03-04 19:20:00,34.6,13.3,30.02,NNW,336,7.0,9.0,41,0.00,,,0.00,VWS V14.01,2013-03-05 01:20:00,
2013-03-04 19:25:00,34.3,15.7,30.02,NW,318,4.0,9.0,46,0.00,,,0.00,VWS V14.01,2013-03-05 01:25:00,
2013-03-04 19:30:00,34.1,9.3,30.02,NW,315,6.0,17.0,35,0.00,,,0.00,VWS V14.01,2013-03-05 01:30:00,
2013-03-04 19:35:00,33.8,10.3,30.02,WNW,289,12.0,13.0,37,0.00,,,0.00,VWS V14.01,2013-03-05 01:35:00,
2013-03-04 19:40:00,33.5,9.4,30.02,NW,306,8.0,14.0,36,0.00,,,0.00,VWS V14.01,2013-03-05 01:40:00,
2013-03-04 19:45:00,33.1,12.0,30.04,NW,305,4.0,14.0,41,0.00,,,0.00,VWS V14.01,2013-03-05 01:45:00,
2013-03-04 19:50:00,32.9,11.2,30.04,WNW,299,5.0,12.0,40,0.00,,,0.00,VWS V14.01,2013-03-05 01:50:00,
2013-03-04 19:55:00,32.8,12.2,30.04,NNW,329,8.0,12.0,42,0.00,,,0.00,VWS V14.01,2013-03-05 01:55:00,
2013-03-04 20:00:00,32.7,11.1,30.04,NW,312,5.0,12.0,40,0.00,,,0.00,VWS V14.01,2013-03-05 02:00:00,
2013-03-04 20:05:00,32.5,10.9,30.04,NW,326,6.0,12.0,40,0.00,,,0.00,VWS V14.01,2013-03-05 02:05:00,
2013-03-04 20:10:00,32.5,10.9,30.04,NNW,333,5.0,12.0,40,0.00,,,0.00,VWS V14.01,2013-03-05 02:10:00,
2013-03-04 20:15:00,32.2,12.8,30.05,North,1,6.0,12.0,44,0.00,,,0.00,VWS V14.01,2013-03-05 02:15:00,
2013-03-04 20:20:00,31.9,10.9,30.05,WNW,294,6.0,12.0,41,0.00,,,0.00,VWS V14.01,2013-03-05 02:20:00,
2013-03-04 20:25:00,31.6,11.7,30.05,NNW,329,6.0,12.0,43,0.00,,,0.00,VWS V14.01,2013-03-05 02:25:00,
2013-03-04 20:30:00,31.3,11.4,30.06,NNW,332,2.0,12.0,43,0.00,,,0.00,VWS V14.01,2013-03-05 02:30:00,
2013-03-04 20:35:00,31.0,11.7,30.06,North,353,7.0,12.0,44,0.00,,,0.00,VWS V14.01,2013-03-05 02:35:00,
2013-03-04 20:40:00,30.7,9.8,30.06,NNW,343,11.0,12.0,41,0.00,,,0.00,VWS V14.01,2013-03-05 02:40:00,
2013-03-04 20:45:00,30.6,9.7,30.06,NNW,332,6.0,12.0,41,0.00,,,0.00,VWS V14.01,2013-03-05 02:45:00,
2013-03-04 20:50:00,30.4,10.6,30.06,WNW,299,9.0,13.0,43,0.00,,,0.00,VWS V14.01,2013-03-05 02:50:00,
2013-03-04 20:55:00,30.3,10.0,30.06,NNW,340,5.0,14.0,42,0.00,,,0.00,VWS V14.01,2013-03-05 02:55:00,
2013-03-04 21:00:00,30.1,9.3,30.07,North,357,7.0,14.0,41,0.00,,,0.00,VWS V14.01,2013-03-05 03:00:00,
2013-03-04 21:05:00,30.1,8.1,30.07,NW,323,8.0,14.0,39,0.00,,,0.00,VWS V14.01,2013-03-05 03:05:00,
2013-03-04 21:10:00,30.0,9.2,30.07,NNW,328,17.0,17.0,41,0.00,,,0.00,VWS V14.01,2013-03-05 03:10:00,
2013-03-04 21:15:00,29.8,10.1,30.08,North,354,10.0,17.0,43,0.00,,,0.00,VWS V14.01,2013-03-05 03:15:00,
2013-03-04 21:20:00,29.7,10.5,30.08,North,359,10.0,14.0,44,0.00,,,0.00,VWS V14.01,2013-03-05 03:20:00,
2013-03-04 21:25:00,29.7,10.0,30.08,North,353,7.0,17.0,43,0.00,,,0.00,VWS V14.01,2013-03-05 03:25:00,
2013-03-04 21:30:00,29.4,12.1,30.09,North,359,12.0,17.0,48,0.00,,,0.00,VWS V14.01,2013-03-05 03:30:00,
2013-03-04 21:35:00,29.3,16.4,30.09,North,354,10.0,19.0,58,0.00,,,0.00,VWS V14.01,2013-03-05 03:35:00,
2013-03-04 21:40:00,29.0,14.4,30.09,North,359,16.0,19.0,54,0.00,,,0.00,VWS V14.01,2013-03-05 03:40:00,
2013-03-04 21:45:00,28.7,12.9,30.10,NNE,17,14.0,21.0,51,0.00,,,0.00,VWS V14.01,2013-03-05 03:45:00,
2013-03-04 21:50:00,28.4,12.6,30.10,NNW,336,11.0,21.0,51,0.00,,,0.00,VWS V14.01,2013-03-05 03:50:00,
2013-03-04 21:55:00,28.1,10.0,30.10,North,0,9.0,21.0,46,0.00,,,0.00,VWS V14.01,2013-03-05 03:55:00,
2013-03-04 22:00:00,27.8,9.2,30.13,North,0,13.0,21.0,45,0.00,,,0.00,VWS V14.01,2013-03-05 04:00:00,
2013-03-04 22:06:00,27.5,10.9,30.13,NNW,337,7.0,18.0,49,0.00,,,0.00,VWS V14.01,2013-03-05 04:06:00,
2013-03-04 22:11:00,27.2,9.2,30.13,North,359,10.0,18.0,46,0.00,,,0.00,VWS V14.01,2013-03-05 04:11:00,
2013-03-04 22:15:00,24.8,10.9,30.15,North,353,5.0,9.0,55,0.00,,,0.00,VWS V14.01,2013-03-05 04:15:00,
2013-03-04 22:16:00,27.0,10.9,30.13,North,359,7.0,18.0,50,0.00,,,0.00,VWS V14.01,2013-03-05 04:16:00,
2013-03-04 22:21:00,26.7,9.7,30.13,North,359,5.0,12.0,48,0.00,,,0.00,VWS V14.01,2013-03-05 04:21:00,
2013-03-04 22:26:00,26.6,10.5,30.13,North,359,6.0,12.0,50,0.00,,,0.00,VWS V14.01,2013-03-05 04:26:00,
2013-03-04 22:30:00,24.7,11.6,30.15,NW,323,3.0,7.0,57,0.00,,,0.00,VWS V14.01,2013-03-05 04:30:00,
2013-03-04 22:31:00,26.4,9.8,30.13,North,359,6.0,12.0,49,0.00,,,0.00,VWS V14.01,2013-03-05 04:31:00,
2013-03-04 22:36:00,26.3,10.6,30.13,North,356,2.0,14.0,51,0.00,,,0.00,VWS V14.01,2013-03-05 04:36:00,
2013-03-04 22:41:00,26.0,10.4,30.13,NW,322,2.0,14.0,51,0.00,,,0.00,VWS V14.01,2013-03-05 04:41:00,
2013-03-04 22:45:00,25.0,11.1,30.16,North,349,4.0,14.0,55,0.00,,,0.00,VWS V14.01,2013-03-05 04:45:00,
2013-03-04 22:46:00,25.7,10.9,30.13,NW,311,2.0,14.0,53,0.00,,,0.00,VWS V14.01,2013-03-05 04:46:00,
2013-03-04 22:51:00,25.4,10.7,30.13,NNW,336,1.0,5.0,53,0.00,,,0.00,VWS V14.01,2013-03-05 04:51:00,
2013-03-04 22:56:00,25.3,10.1,30.13,NNW,336,5.0,7.0,52,0.00,,,0.00,VWS V14.01,2013-03-05 04:56:00,
2013-03-04 23:00:00,25.1,10.8,30.13,NNW,336,3.0,7.0,54,0.00,,,0.00,VWS V14.01,2013-03-05 05:00:00,
2013-03-04 23:05:00,25.1,11.2,30.15,NNW,339,0.0,5.0,55,0.00,,,0.00,VWS V14.01,2013-03-05 05:05:00,
2013-03-04 23:10:00,24.8,11.3,30.15,North,359,2.0,7.0,56,0.00,,,0.00,VWS V14.01,2013-03-05 05:10:00,
2013-03-04 23:15:00,24.8,12.1,30.15,NNW,340,5.0,9.0,58,0.00,,,0.00,VWS V14.01,2013-03-05 05:15:00,
2013-03-04 23:20:00,24.8,11.3,30.15,NNW,329,5.0,6.0,56,0.00,,,0.00,VWS V14.01,2013-03-05 05:20:00,
2013-03-04 23:25:00,24.8,11.3,30.15,NNW,340,3.0,7.0,56,0.00,,,0.00,VWS V14.01,2013-03-05 05:25:00,
2013-03-04 23:30:00,24.7,11.6,30.15,North,7,3.0,7.0,57,0.00,,,0.00,VWS V14.01,2013-03-05 05:30:00,
2013-03-04 23:35:00,24.7,11.2,30.15,North,359,8.0,10.0,56,0.00,,,0.00,VWS V14.01,2013-03-05 05:35:00,
2013-03-04 23:40:00,24.8,11.3,30.15,North,359,5.0,12.0,56,0.00,,,0.00,VWS V14.01,2013-03-05 05:40:00,
2013-03-04 23:45:00,25.0,11.5,30.15,North,352,5.0,12.0,56,0.00,,,0.00,VWS V14.01,2013-03-05 05:45:00,
2013-03-04 23:50:00,25.0,11.5,30.16,North,359,6.0,11.0,56,0.00,,,0.00,VWS V14.01,2013-03-05 05:50:00,
2013-03-04 23:55:00,24.8,10.9,30.16,NNW,343,2.0,11.0,55,0.00,,,0.00,VWS V14.01,2013-03-05 05:55:00,